Lantana, FL

5:37 PM EDT on August 29, 2016 (GMT -0400)
Lantana | | Change Station

Elev 16 ft 26.58 °N, 80.06 °W | Updated 2 minutes ago

Mostly Cloudy
Mostly Cloudy
82.5 °F
Feels Like 89 °F
N
4.0
Wind Variable Wind from SE
Gusts 10.0 mph

Today
High -- | Low -- °F
--% Chance of Precip.
Yesterday
High -- | Low -- °F
Precip. -- in
Pressure 29.91 in
Visibility 10.0 miles
Clouds Few 1600 ft
Scattered Clouds 2400 ft
Mostly Cloudy 22000 ft
Heat Index 89 °F
Dew Point 75 °F
Humidity 77%
Rainfall 0.25 in
Snow Depth Not available.
6:58 AM 7:42 PM
Waning Crescent, 7% visible
METAR KPBI 292053Z 13013KT 10SM FEW016 SCT024 BKN220 28/24 A2991 RMK AO2 SLP126 CB DSNT SW-NW T02830239 56012
Pressure 29.91 in
Visibility 10.0 miles
Clouds Few 1600 ft
Scattered Clouds 2400 ft
Mostly Cloudy 22000 ft
Heat Index 89 °F
Dew Point 75 °F
Humidity 77%
Rainfall 0.25 in
Snow Depth Not available.
6:58 AM 7:42 PM
Waning Crescent, 7% visible
METAR KPBI 292053Z 13013KT 10SM FEW016 SCT024 BKN220 28/24 A2991 RMK AO2 SLP126 CB DSNT SW-NW T02830239 56012
Tropical Depression Nine was centered about 170 miles west-southwest of Key West, Florida, as of late Monday morning. The depression may struggle a bit in the southern Gulf of Mexico before finally making a Gulf Coast landfall later this week with soaking rain and gusty winds.

This latest system was designated a tropical depression Sunday after a Hurricane Hunter reconnaissance mission finally found a sufficiently organized low-pressure center with collocated shower and thunderstorm activity.

10-Day Weather Forecast

Almanac

Astronomy

Aug. 29, 2016 Rise Set
Actual Time
Civil Twilight
Nautical Twilight
Astronomical Twilight
Moon
Length of Visible Light
Length of Day
Tomorrow will be .
, % of the Moon is Illuminated

Today's Extremes

State Highs State Lows

Community

WunderPhotos

Upload Photos

1,935,679 photos uploaded!

WunderBlog® & News

Nearby

Air Quality

  Air Quality AQ Index Pollutant
Not available.

Snow Depth

Station Depth Elevation

Earthquake Activity

City Distance Mag. Time & Date
Minimum magnitude displayed is 2.5.

Coastal Water Temperatures

Place Temperature

Stations

Nearby Weather Stations

Station Location Temp. Windchill Dew Point Humidity Wind Precip. Elev Updated Type
                   

Watches & Warnings

There are currently no watches in effect.